Year,Month,Day,Hour,Minute,Value (Times are PST for temperature in C)
2021,04,15,00,00,7.90
2021,04,15,00,01,8.00
2021,04,15,00,02,8.00
2021,04,15,00,03,8.10
2021,04,15,00,04,8.10
2021,04,15,00,05,8.20
2021,04,15,00,06,8.20
2021,04,15,00,07,8.20
2021,04,15,00,08,8.20
2021,04,15,00,09,8.20
2021,04,15,00,10,8.20
2021,04,15,00,11,8.20
2021,04,15,00,12,8.20
2021,04,15,00,13,8.20
2021,04,15,00,14,8.20
2021,04,15,00,15,8.20
2021,04,15,00,16,8.10
2021,04,15,00,17,8.10
2021,04,15,00,18,8.10
2021,04,15,00,19,8.10
2021,04,15,00,20,8.10
2021,04,15,00,21,8.10
2021,04,15,00,22,8.10
2021,04,15,00,23,8.10
2021,04,15,00,24,8.10
2021,04,15,00,25,8.20
2021,04,15,00,26,8.20
2021,04,15,00,27,8.20
2021,04,15,00,28,8.20
2021,04,15,00,29,8.20
2021,04,15,00,30,8.20
2021,04,15,00,31,8.20
2021,04,15,00,32,8.20
2021,04,15,00,33,8.20
2021,04,15,00,34,8.20
2021,04,15,00,35,8.20
2021,04,15,00,36,8.20
2021,04,15,00,37,8.20
2021,04,15,00,38,8.20
2021,04,15,00,39,8.20
2021,04,15,00,40,8.20
2021,04,15,00,41,8.20
2021,04,15,00,42,8.20
2021,04,15,00,43,8.20
2021,04,15,00,44,8.10
2021,04,15,00,45,8.10
2021,04,15,00,46,8.00
2021,04,15,00,47,8.00
2021,04,15,00,48,7.90
2021,04,15,00,49,7.90
2021,04,15,00,50,7.80
2021,04,15,00,51,7.80
2021,04,15,00,52,7.80
2021,04,15,00,53,7.80
2021,04,15,00,54,7.70
2021,04,15,00,55,7.60
2021,04,15,00,56,7.60
2021,04,15,00,57,7.50
2021,04,15,00,58,7.50
2021,04,15,00,59,7.50
2021,04,15,01,00,7.50
2021,04,15,01,01,7.40
2021,04,15,01,02,7.40
2021,04,15,01,03,7.40
2021,04,15,01,04,7.40
2021,04,15,01,05,7.40
2021,04,15,01,06,7.50
2021,04,15,01,07,7.50
2021,04,15,01,08,7.50
2021,04,15,01,09,7.50
2021,04,15,01,10,7.50
2021,04,15,01,11,7.50
2021,04,15,01,12,7.50
2021,04,15,01,13,7.50
2021,04,15,01,14,7.50
2021,04,15,01,15,7.50
2021,04,15,01,16,7.40
2021,04,15,01,17,7.40
2021,04,15,01,18,7.40
2021,04,15,01,19,7.40
2021,04,15,01,20,7.40
2021,04,15,01,21,7.30
2021,04,15,01,22,7.30
2021,04,15,01,23,7.30
2021,04,15,01,24,7.30
2021,04,15,01,25,7.30
2021,04,15,01,26,7.30
2021,04,15,01,27,7.30
2021,04,15,01,28,7.30
2021,04,15,01,29,7.30
2021,04,15,01,30,7.30
2021,04,15,01,31,7.30
2021,04,15,01,32,7.40
2021,04,15,01,33,7.40
2021,04,15,01,34,7.50
2021,04,15,01,35,7.60
2021,04,15,01,36,7.60
2021,04,15,01,37,7.70
2021,04,15,01,38,7.80
2021,04,15,01,39,7.80
2021,04,15,01,40,7.90
2021,04,15,01,41,8.00
2021,04,15,01,42,8.10
2021,04,15,01,43,8.20
2021,04,15,01,44,8.20
2021,04,15,01,45,8.20
2021,04,15,01,46,8.30
2021,04,15,01,47,8.30
2021,04,15,01,48,8.40
2021,04,15,01,49,8.40
2021,04,15,01,50,8.50
2021,04,15,01,51,8.50
2021,04,15,01,52,8.60
2021,04,15,01,53,8.60
2021,04,15,01,54,8.70
2021,04,15,01,55,8.70
2021,04,15,01,56,8.70
2021,04,15,01,57,8.70
2021,04,15,01,58,8.80
2021,04,15,01,59,8.80
2021,04,15,02,00,8.80
2021,04,15,02,01,8.80
2021,04,15,02,02,8.80
2021,04,15,02,03,8.80
2021,04,15,02,04,8.80
2021,04,15,02,05,8.80
2021,04,15,02,06,8.80
2021,04,15,02,07,8.90
2021,04,15,02,08,8.90
2021,04,15,02,09,8.90
2021,04,15,02,10,9.00
2021,04,15,02,11,9.00
2021,04,15,02,12,9.00
2021,04,15,02,13,9.00
2021,04,15,02,14,9.00
2021,04,15,02,15,9.00
2021,04,15,02,16,9.00
2021,04,15,02,17,9.00
2021,04,15,02,18,9.00
2021,04,15,02,19,9.00
2021,04,15,02,20,9.00
2021,04,15,02,21,9.00
2021,04,15,02,22,9.00
2021,04,15,02,23,9.00
2021,04,15,02,24,9.00
2021,04,15,02,25,9.00
2021,04,15,02,26,9.00
2021,04,15,02,27,9.10
2021,04,15,02,28,9.10
2021,04,15,02,29,9.10
2021,04,15,02,30,9.10
2021,04,15,02,31,9.10
2021,04,15,02,32,9.10
2021,04,15,02,33,9.10
2021,04,15,02,34,9.10
2021,04,15,02,35,9.10
2021,04,15,02,36,9.10
2021,04,15,02,37,9.10
2021,04,15,02,38,9.10
2021,04,15,02,39,9.10
2021,04,15,02,40,9.10
2021,04,15,02,41,9.20
2021,04,15,02,42,9.20
2021,04,15,02,43,9.20
2021,04,15,02,44,9.20
2021,04,15,02,45,9.20
2021,04,15,02,46,9.20
2021,04,15,02,47,9.20
2021,04,15,02,48,9.20
2021,04,15,02,49,9.20
2021,04,15,02,50,9.20
2021,04,15,02,51,9.20
2021,04,15,02,52,9.20
2021,04,15,02,53,9.20
2021,04,15,02,54,9.20
2021,04,15,02,55,9.20
2021,04,15,02,56,9.20
2021,04,15,02,57,9.20
2021,04,15,02,58,9.20
2021,04,15,02,59,9.20
2021,04,15,03,00,9.20
2021,04,15,03,01,9.20
2021,04,15,03,02,9.20
2021,04,15,03,03,9.20
2021,04,15,03,04,9.20
2021,04,15,03,05,9.20
2021,04,15,03,06,9.10
2021,04,15,03,07,9.10
2021,04,15,03,08,9.10
2021,04,15,03,09,9.00
2021,04,15,03,10,9.00
2021,04,15,03,11,9.00
2021,04,15,03,12,9.00
2021,04,15,03,13,8.90
2021,04,15,03,14,8.90
2021,04,15,03,15,8.90
2021,04,15,03,16,8.90
2021,04,15,03,17,8.90
2021,04,15,03,18,8.90
2021,04,15,03,19,8.90
2021,04,15,03,20,8.90
2021,04,15,03,21,8.90
2021,04,15,03,22,8.90
2021,04,15,03,23,9.00
2021,04,15,03,24,8.90
2021,04,15,03,25,8.90
2021,04,15,03,26,8.90
2021,04,15,03,27,8.90
2021,04,15,03,28,8.90
2021,04,15,03,29,8.90
2021,04,15,03,30,8.90
2021,04,15,03,31,8.90
2021,04,15,03,32,8.90
2021,04,15,03,33,8.90
2021,04,15,03,34,8.80
2021,04,15,03,35,8.90
2021,04,15,03,36,8.90
2021,04,15,03,37,8.90
2021,04,15,03,38,8.90
2021,04,15,03,39,9.00
2021,04,15,03,40,9.10
2021,04,15,03,41,9.20
2021,04,15,03,42,9.30
2021,04,15,03,43,9.30
2021,04,15,03,44,9.40
2021,04,15,03,45,9.50
2021,04,15,03,46,9.70
2021,04,15,03,47,9.70
2021,04,15,03,48,9.80
2021,04,15,03,49,9.90
2021,04,15,03,50,10.00
2021,04,15,03,51,10.10
2021,04,15,03,52,10.10
2021,04,15,03,53,10.20
2021,04,15,03,54,10.20
2021,04,15,03,55,10.30
2021,04,15,03,56,10.30
2021,04,15,03,57,10.30
2021,04,15,03,58,10.30
2021,04,15,03,59,10.30
2021,04,15,04,00,10.30
2021,04,15,04,01,10.30
2021,04,15,04,02,10.30
2021,04,15,04,03,10.30
2021,04,15,04,04,10.30
2021,04,15,04,05,10.30
2021,04,15,04,06,10.30
2021,04,15,04,07,10.20
2021,04,15,04,08,10.20
2021,04,15,04,09,10.20
2021,04,15,04,10,10.10
2021,04,15,04,11,10.10
2021,04,15,04,12,10.10
2021,04,15,04,13,10.10
2021,04,15,04,14,10.10
2021,04,15,04,15,10.10
2021,04,15,04,16,10.00
2021,04,15,04,17,9.90
2021,04,15,04,18,9.90
2021,04,15,04,19,9.90
2021,04,15,04,20,9.90
2021,04,15,04,21,9.90
2021,04,15,04,22,9.90
2021,04,15,04,23,9.80
2021,04,15,04,24,9.80
2021,04,15,04,25,9.80
2021,04,15,04,26,9.70
2021,04,15,04,27,9.70
2021,04,15,04,28,9.70
2021,04,15,04,29,9.70
2021,04,15,04,30,9.70
2021,04,15,04,31,9.60
2021,04,15,04,32,9.60
2021,04,15,04,33,9.60
2021,04,15,04,34,9.50
2021,04,15,04,35,9.50
2021,04,15,04,36,9.50
2021,04,15,04,37,9.50
2021,04,15,04,38,9.50
2021,04,15,04,39,9.50
2021,04,15,04,40,9.50
2021,04,15,04,41,9.60
2021,04,15,04,42,9.70
2021,04,15,04,43,9.70
2021,04,15,04,44,9.70
2021,04,15,04,45,9.70
2021,04,15,04,46,9.70
2021,04,15,04,47,9.80
2021,04,15,04,48,9.80
2021,04,15,04,49,9.80
2021,04,15,04,50,9.80
2021,04,15,04,51,9.80
2021,04,15,04,52,9.80
2021,04,15,04,53,9.80
2021,04,15,04,54,9.80
2021,04,15,04,55,9.70
2021,04,15,04,56,9.70
2021,04,15,04,57,9.70
2021,04,15,04,58,9.70
2021,04,15,04,59,9.70
2021,04,15,05,00,9.70
2021,04,15,05,01,9.60
2021,04,15,05,02,9.60
2021,04,15,05,03,9.50
2021,04,15,05,04,9.50
2021,04,15,05,05,9.40
2021,04,15,05,06,9.40
2021,04,15,05,07,9.30
2021,04,15,05,08,9.30
2021,04,15,05,09,9.20
2021,04,15,05,10,9.20
2021,04,15,05,11,9.10
2021,04,15,05,12,9.00
2021,04,15,05,13,8.90
2021,04,15,05,14,8.80
2021,04,15,05,15,8.70
2021,04,15,05,16,8.60
2021,04,15,05,17,8.50
2021,04,15,05,18,8.30
2021,04,15,05,19,8.20
2021,04,15,05,20,8.10
2021,04,15,05,21,8.00
2021,04,15,05,22,7.90
2021,04,15,05,23,7.80
2021,04,15,05,24,7.70
2021,04,15,05,25,7.60
2021,04,15,05,26,7.50
2021,04,15,05,27,7.40
2021,04,15,05,28,7.30
2021,04,15,05,29,7.30
2021,04,15,05,30,7.20
2021,04,15,05,31,7.20
2021,04,15,05,32,7.10
2021,04,15,05,33,7.10
2021,04,15,05,34,7.10
2021,04,15,05,35,7.00
2021,04,15,05,36,7.00
2021,04,15,05,37,7.00
2021,04,15,05,38,6.90
2021,04,15,05,39,6.90
2021,04,15,05,40,6.80
2021,04,15,05,41,6.80
2021,04,15,05,42,6.80
2021,04,15,05,43,6.80
2021,04,15,05,44,6.80
2021,04,15,05,45,6.80
2021,04,15,05,46,6.80
2021,04,15,05,47,6.80
2021,04,15,05,48,6.80
2021,04,15,05,49,6.90
2021,04,15,05,50,7.00
2021,04,15,05,51,7.00
2021,04,15,05,52,7.10
2021,04,15,05,53,7.10
2021,04,15,05,54,7.20
2021,04,15,05,55,7.30
2021,04,15,05,56,7.30
2021,04,15,05,57,7.30
2021,04,15,05,58,7.30
2021,04,15,05,59,7.30
2021,04,15,06,00,7.30
2021,04,15,06,01,7.30
2021,04,15,06,02,7.30
2021,04,15,06,03,7.30
2021,04,15,06,04,7.30
2021,04,15,06,05,7.30
2021,04,15,06,06,7.30
2021,04,15,06,07,7.40
2021,04,15,06,08,7.40
2021,04,15,06,09,7.40
2021,04,15,06,10,7.40
2021,04,15,06,11,7.40
2021,04,15,06,12,7.40
2021,04,15,06,13,7.40
2021,04,15,06,14,7.40
2021,04,15,06,15,7.40
2021,04,15,06,16,7.50
2021,04,15,06,17,7.50
2021,04,15,06,18,7.50
2021,04,15,06,19,7.50
2021,04,15,06,20,7.50
2021,04,15,06,21,7.50
2021,04,15,06,22,7.50
2021,04,15,06,23,7.50
2021,04,15,06,24,7.50
2021,04,15,06,25,7.50
2021,04,15,06,26,7.50
2021,04,15,06,27,7.50
2021,04,15,06,28,7.50
2021,04,15,06,29,7.50
2021,04,15,06,30,7.50
2021,04,15,06,31,7.60
2021,04,15,06,32,7.70
2021,04,15,06,33,7.70
2021,04,15,06,34,7.80
2021,04,15,06,35,7.90
2021,04,15,06,36,8.00
2021,04,15,06,37,8.10
2021,04,15,06,38,8.10
2021,04,15,06,39,8.20
2021,04,15,06,40,8.20
2021,04,15,06,41,8.20
2021,04,15,06,42,8.20
2021,04,15,06,43,8.20
2021,04,15,06,44,8.20
2021,04,15,06,45,8.20
2021,04,15,06,46,8.20
2021,04,15,06,47,8.10
2021,04,15,06,48,8.00
2021,04,15,06,49,8.00
2021,04,15,06,50,7.90
2021,04,15,06,51,7.80
2021,04,15,06,52,7.80
2021,04,15,06,53,7.80
2021,04,15,06,54,7.70
2021,04,15,06,55,7.70
2021,04,15,06,56,7.60
2021,04,15,06,57,7.60
2021,04,15,06,58,7.60
2021,04,15,06,59,7.50
2021,04,15,07,00,7.50
2021,04,15,07,01,7.50
2021,04,15,07,02,7.40
2021,04,15,07,03,7.40
2021,04,15,07,04,7.40
2021,04,15,07,05,7.40
2021,04,15,07,06,7.40
2021,04,15,07,07,7.40
2021,04,15,07,08,7.40
2021,04,15,07,09,7.50
2021,04,15,07,10,7.50
2021,04,15,07,11,7.60
2021,04,15,07,12,7.60
2021,04,15,07,13,7.60
2021,04,15,07,14,7.60
2021,04,15,07,15,7.70
2021,04,15,07,16,7.70
2021,04,15,07,17,7.70
2021,04,15,07,18,7.70
2021,04,15,07,19,7.80
2021,04,15,07,20,7.80
2021,04,15,07,21,7.80
2021,04,15,07,22,7.80
2021,04,15,07,23,7.80
2021,04,15,07,24,7.80
2021,04,15,07,25,7.90
2021,04,15,07,26,7.90
2021,04,15,07,27,7.90
2021,04,15,07,28,7.90
2021,04,15,07,29,7.80
2021,04,15,07,30,7.80
2021,04,15,07,31,7.80
2021,04,15,07,32,7.80
2021,04,15,07,33,7.80
2021,04,15,07,34,7.80
2021,04,15,07,35,7.80
2021,04,15,07,36,7.80
2021,04,15,07,37,7.80
2021,04,15,07,38,7.80
2021,04,15,07,39,7.80
2021,04,15,07,40,7.80
2021,04,15,07,41,7.90
2021,04,15,07,42,8.00
2021,04,15,07,43,8.10
2021,04,15,07,44,8.20
2021,04,15,07,45,8.40
2021,04,15,07,46,8.60
2021,04,15,07,47,8.80
2021,04,15,07,48,8.90
2021,04,15,07,49,9.10
2021,04,15,07,50,9.20
2021,04,15,07,51,9.40
2021,04,15,07,52,9.50
2021,04,15,07,53,9.60
2021,04,15,07,54,9.70
2021,04,15,07,55,9.70
2021,04,15,07,56,9.80
2021,04,15,07,57,9.90
2021,04,15,07,58,10.00
2021,04,15,07,59,10.10
2021,04,15,08,00,10.10
2021,04,15,08,01,10.20
2021,04,15,08,02,10.30
2021,04,15,08,03,10.30
2021,04,15,08,04,10.40
2021,04,15,08,05,10.40
2021,04,15,08,06,10.40
2021,04,15,08,07,10.40
2021,04,15,08,08,10.40
2021,04,15,08,09,10.40
2021,04,15,08,10,10.40
2021,04,15,08,11,10.40
2021,04,15,08,12,10.40
2021,04,15,08,13,10.40
2021,04,15,08,14,10.40
2021,04,15,08,15,10.40
2021,04,15,08,16,10.40
2021,04,15,08,17,10.40
2021,04,15,08,18,10.40
2021,04,15,08,19,10.40
2021,04,15,08,20,10.40
2021,04,15,08,21,10.40
2021,04,15,08,22,10.40
2021,04,15,08,23,10.40
2021,04,15,08,24,10.40
2021,04,15,08,25,10.50
2021,04,15,08,26,10.60
2021,04,15,08,27,10.60
2021,04,15,08,28,10.60
2021,04,15,08,29,10.70
2021,04,15,08,30,10.70
2021,04,15,08,31,10.80
2021,04,15,08,32,10.80
2021,04,15,08,33,10.90
2021,04,15,08,34,10.90
2021,04,15,08,35,11.00
2021,04,15,08,36,11.10
2021,04,15,08,37,11.10
2021,04,15,08,38,11.10
2021,04,15,08,39,11.20
2021,04,15,08,40,11.30
2021,04,15,08,41,11.30
2021,04,15,08,42,11.40
2021,04,15,08,43,11.40
2021,04,15,08,44,11.40
2021,04,15,08,45,11.50
2021,04,15,08,46,11.60
2021,04,15,08,47,11.60
2021,04,15,08,48,11.60
2021,04,15,08,49,11.60
2021,04,15,08,50,11.60
2021,04,15,08,51,11.70
2021,04,15,08,52,11.70
2021,04,15,08,53,11.70
2021,04,15,08,54,11.70
2021,04,15,08,55,11.70
2021,04,15,08,56,11.80
2021,04,15,08,57,11.80
2021,04,15,08,58,11.90
2021,04,15,08,59,12.10
2021,04,15,09,00,12.20
2021,04,15,09,01,12.30
2021,04,15,09,02,12.50
2021,04,15,09,03,12.60
2021,04,15,09,04,12.80
2021,04,15,09,05,13.00
2021,04,15,09,06,13.20
2021,04,15,09,07,13.30
2021,04,15,09,08,13.50
2021,04,15,09,09,13.60
2021,04,15,09,10,13.70
2021,04,15,09,11,13.80
2021,04,15,09,12,13.90
2021,04,15,09,13,14.00
2021,04,15,09,14,14.10
2021,04,15,09,15,14.20
2021,04,15,09,16,14.30
2021,04,15,09,17,14.40
2021,04,15,09,18,14.50
2021,04,15,09,19,14.60
2021,04,15,09,20,14.60
2021,04,15,09,21,14.70
2021,04,15,09,22,14.80
2021,04,15,09,23,14.80
2021,04,15,09,24,14.90
2021,04,15,09,25,15.00
2021,04,15,09,26,15.00
2021,04,15,09,27,15.10
2021,04,15,09,28,15.10
2021,04,15,09,29,15.30
2021,04,15,09,30,15.30
2021,04,15,09,31,15.30
2021,04,15,09,32,15.30
2021,04,15,09,33,15.40
2021,04,15,09,34,15.40
2021,04,15,09,35,15.50
2021,04,15,09,36,15.50
2021,04,15,09,37,15.50
2021,04,15,09,38,15.50
2021,04,15,09,39,15.50
2021,04,15,09,40,15.50
2021,04,15,09,41,15.50
2021,04,15,09,42,15.60
2021,04,15,09,43,15.60
2021,04,15,09,44,15.60
2021,04,15,09,45,15.70
2021,04,15,09,46,15.80
2021,04,15,09,47,15.80
2021,04,15,09,48,15.80
2021,04,15,09,49,15.80
2021,04,15,09,50,15.90
2021,04,15,09,51,15.90
2021,04,15,09,52,15.90
2021,04,15,09,53,15.90
2021,04,15,09,54,16.10
2021,04,15,09,55,16.10
2021,04,15,09,56,16.10
2021,04,15,09,57,16.10
2021,04,15,09,58,16.10
2021,04,15,09,59,16.10
2021,04,15,10,00,16.10
2021,04,15,10,01,16.20
2021,04,15,10,02,16.20
2021,04,15,10,03,16.30
2021,04,15,10,04,16.30
2021,04,15,10,05,16.40
2021,04,15,10,06,16.40
2021,04,15,10,07,16.40
2021,04,15,10,08,16.40
2021,04,15,10,09,16.50
2021,04,15,10,10,16.50
2021,04,15,10,11,16.40
2021,04,15,10,12,16.50
2021,04,15,10,13,16.60
2021,04,15,10,14,16.70
2021,04,15,10,15,16.70
2021,04,15,10,16,16.70
2021,04,15,10,17,16.70
2021,04,15,10,18,16.70
2021,04,15,10,19,16.70
2021,04,15,10,20,16.70
2021,04,15,10,21,16.70
2021,04,15,10,22,16.70
2021,04,15,10,23,16.70
2021,04,15,10,24,16.70
2021,04,15,10,25,16.70
2021,04,15,10,26,16.70
2021,04,15,10,27,16.70
2021,04,15,10,28,16.70
2021,04,15,10,29,16.70
2021,04,15,10,30,16.80
2021,04,15,10,31,16.80
2021,04,15,10,32,16.80
2021,04,15,10,33,16.70
2021,04,15,10,34,16.70
2021,04,15,10,35,16.70
2021,04,15,10,36,16.80
2021,04,15,10,37,16.90
2021,04,15,10,38,17.00
2021,04,15,10,39,17.00
2021,04,15,10,40,17.10
2021,04,15,10,41,17.20
2021,04,15,10,42,17.30
2021,04,15,10,43,17.30
2021,04,15,10,44,17.30
2021,04,15,10,45,17.30
2021,04,15,10,46,17.40
2021,04,15,10,47,17.50
2021,04,15,10,48,17.50
2021,04,15,10,49,17.60
2021,04,15,10,50,17.60
2021,04,15,10,51,17.60
2021,04,15,10,52,17.60
2021,04,15,10,53,17.70
2021,04,15,10,54,17.70
2021,04,15,10,55,17.80
2021,04,15,10,56,17.80
2021,04,15,10,57,17.80
2021,04,15,10,58,17.80
2021,04,15,10,59,17.90
2021,04,15,11,00,17.90
2021,04,15,11,01,17.80
2021,04,15,11,02,17.70
2021,04,15,11,03,17.70
2021,04,15,11,04,17.70
2021,04,15,11,05,17.70
2021,04,15,11,06,17.80
2021,04,15,11,07,17.80
2021,04,15,11,08,17.80
2021,04,15,11,09,17.80
2021,04,15,11,10,17.80
2021,04,15,11,11,17.90
2021,04,15,11,12,17.90
2021,04,15,11,13,17.90
2021,04,15,11,14,17.90
2021,04,15,11,15,18.00
2021,04,15,11,16,18.10
2021,04,15,11,17,18.20
2021,04,15,11,18,18.20
2021,04,15,11,19,18.20
2021,04,15,11,20,18.20
2021,04,15,11,21,18.30
2021,04,15,11,22,18.30
2021,04,15,11,23,18.30
2021,04,15,11,24,18.30
2021,04,15,11,25,18.40
2021,04,15,11,26,18.50
2021,04,15,11,27,18.50
2021,04,15,11,28,18.60
2021,04,15,11,29,18.70
2021,04,15,11,30,18.70
2021,04,15,11,31,18.60
2021,04,15,11,32,18.60
2021,04,15,11,33,18.60
2021,04,15,11,34,18.60
2021,04,15,11,35,18.60
2021,04,15,11,36,18.60
2021,04,15,11,37,18.60
2021,04,15,11,38,18.60
2021,04,15,11,39,18.60
2021,04,15,11,40,18.70
2021,04,15,11,41,18.70
2021,04,15,11,42,18.80
2021,04,15,11,43,18.80
2021,04,15,11,44,18.80
2021,04,15,11,45,18.70
2021,04,15,11,46,18.70
2021,04,15,11,47,18.70
2021,04,15,11,48,18.70
2021,04,15,11,49,18.70
2021,04,15,11,50,18.70
2021,04,15,11,51,18.70
2021,04,15,11,52,18.60
2021,04,15,11,53,18.60
2021,04,15,11,54,18.50
2021,04,15,11,55,18.50
2021,04,15,11,56,18.50
2021,04,15,11,57,18.50
2021,04,15,11,58,18.50
2021,04,15,11,59,18.50
2021,04,15,12,00,18.50
2021,04,15,12,01,18.50
2021,04,15,12,02,18.50
2021,04,15,12,03,18.60
2021,04,15,12,04,18.60
2021,04,15,12,05,18.70
2021,04,15,12,06,18.70
2021,04,15,12,07,18.70
2021,04,15,12,08,18.70
2021,04,15,12,09,18.70
2021,04,15,12,10,18.70
2021,04,15,12,11,18.70
2021,04,15,12,12,18.80
2021,04,15,12,13,18.80
2021,04,15,12,14,18.90
2021,04,15,12,15,18.90
2021,04,15,12,16,18.90
2021,04,15,12,17,18.90
2021,04,15,12,18,18.90
2021,04,15,12,19,18.90
2021,04,15,12,20,18.90
2021,04,15,12,21,18.90
2021,04,15,12,22,18.90
2021,04,15,12,23,18.90
2021,04,15,12,24,18.90
2021,04,15,12,25,19.00
2021,04,15,12,26,19.10
2021,04,15,12,27,19.10
2021,04,15,12,28,19.20
2021,04,15,12,29,19.30
2021,04,15,12,30,19.30
2021,04,15,12,31,19.40
2021,04,15,12,32,19.50
2021,04,15,12,33,19.50
2021,04,15,12,34,19.60
2021,04,15,12,35,19.70
2021,04,15,12,36,19.80
2021,04,15,12,37,19.80
2021,04,15,12,38,19.80
2021,04,15,12,39,19.90
2021,04,15,12,40,19.90
2021,04,15,12,41,19.90
2021,04,15,12,42,19.90
2021,04,15,12,43,19.90
2021,04,15,12,44,19.90
2021,04,15,12,45,19.90
2021,04,15,12,46,19.80
2021,04,15,12,47,19.80
2021,04,15,12,48,19.70
2021,04,15,12,49,19.60
2021,04,15,12,50,19.60
2021,04,15,12,51,19.70
2021,04,15,12,52,19.80
2021,04,15,12,53,19.80
2021,04,15,12,54,19.90
2021,04,15,12,55,19.90
2021,04,15,12,56,20.00
2021,04,15,12,57,20.10
2021,04,15,12,58,20.20
2021,04,15,12,59,20.20
2021,04,15,13,00,20.20
2021,04,15,13,01,20.20
2021,04,15,13,02,20.20
2021,04,15,13,03,20.20
2021,04,15,13,04,20.20
2021,04,15,13,05,20.30
2021,04,15,13,06,20.40
2021,04,15,13,07,20.50
2021,04,15,13,08,20.40
2021,04,15,13,09,20.30
2021,04,15,13,10,20.40
2021,04,15,13,11,20.40
2021,04,15,13,12,20.50
2021,04,15,13,13,20.50
2021,04,15,13,14,20.60
2021,04,15,13,15,20.70
2021,04,15,13,16,20.70
2021,04,15,13,17,20.70
2021,04,15,13,18,20.70
2021,04,15,13,19,20.80
2021,04,15,13,20,20.80
2021,04,15,13,21,20.70
2021,04,15,13,22,20.70
2021,04,15,13,23,20.70
2021,04,15,13,24,20.80
2021,04,15,13,25,20.90
2021,04,15,13,26,21.00
2021,04,15,13,27,21.00
2021,04,15,13,28,21.00
2021,04,15,13,29,21.00
2021,04,15,13,30,21.00
2021,04,15,13,31,21.10
2021,04,15,13,32,21.10
2021,04,15,13,33,21.00
2021,04,15,13,34,21.00
2021,04,15,13,35,21.00
2021,04,15,13,36,21.00
2021,04,15,13,37,20.90
2021,04,15,13,38,20.90
2021,04,15,13,39,20.90
2021,04,15,13,40,20.90
2021,04,15,13,41,20.90
2021,04,15,13,42,21.00
2021,04,15,13,43,21.00
2021,04,15,13,44,21.10
2021,04,15,13,45,21.10
2021,04,15,13,46,21.10
2021,04,15,13,47,21.10
2021,04,15,13,48,21.10
2021,04,15,13,49,21.10
2021,04,15,13,50,21.10
2021,04,15,13,51,21.10
2021,04,15,13,52,21.10
2021,04,15,13,53,21.10
2021,04,15,13,54,21.20
2021,04,15,13,55,21.20
2021,04,15,13,56,21.10
2021,04,15,13,57,21.00
2021,04,15,13,58,21.00
2021,04,15,13,59,21.00
2021,04,15,14,00,21.00
2021,04,15,14,01,21.00
2021,04,15,14,02,20.90
2021,04,15,14,03,20.80
2021,04,15,14,04,20.80
2021,04,15,14,05,20.90
2021,04,15,14,06,20.90
2021,04,15,14,07,21.00
2021,04,15,14,08,21.10
2021,04,15,14,09,21.20
2021,04,15,14,10,21.10
2021,04,15,14,11,21.10
2021,04,15,14,12,21.10
2021,04,15,14,13,21.10
2021,04,15,14,14,21.00
2021,04,15,14,15,21.00
2021,04,15,14,16,21.00
2021,04,15,14,17,21.00
2021,04,15,14,18,21.10
2021,04,15,14,19,21.10
2021,04,15,14,20,21.20
2021,04,15,14,21,21.20
2021,04,15,14,22,21.30
2021,04,15,14,23,21.30
2021,04,15,14,24,21.30
2021,04,15,14,25,21.30
2021,04,15,14,26,21.30
2021,04,15,14,27,21.30
2021,04,15,14,28,21.20
2021,04,15,14,29,21.10
2021,04,15,14,30,21.00
2021,04,15,14,31,20.90
2021,04,15,14,32,20.90
2021,04,15,14,33,21.00
2021,04,15,14,34,21.10
2021,04,15,14,35,21.10
2021,04,15,14,36,21.20
2021,04,15,14,37,21.30
2021,04,15,14,38,21.40
2021,04,15,14,39,21.50
2021,04,15,14,40,21.60
2021,04,15,14,41,21.60
2021,04,15,14,42,21.60
2021,04,15,14,43,21.70
2021,04,15,14,44,21.70
2021,04,15,14,45,21.70
2021,04,15,14,46,21.70
2021,04,15,14,47,21.70
2021,04,15,14,48,21.70
2021,04,15,14,49,21.70
2021,04,15,14,50,21.70
2021,04,15,14,51,21.70
2021,04,15,14,52,21.60
2021,04,15,14,53,21.60
2021,04,15,14,54,21.60
2021,04,15,14,55,21.60
2021,04,15,14,56,21.60
2021,04,15,14,57,21.60
2021,04,15,14,58,21.70
2021,04,15,14,59,21.70
2021,04,15,15,00,21.80
2021,04,15,15,01,21.80
2021,04,15,15,02,21.80
2021,04,15,15,03,21.80
2021,04,15,15,04,21.90
2021,04,15,15,05,21.90
2021,04,15,15,06,21.90
2021,04,15,15,07,22.00
2021,04,15,15,08,22.00
2021,04,15,15,09,21.90
2021,04,15,15,10,21.90
2021,04,15,15,11,21.90
2021,04,15,15,12,21.80
2021,04,15,15,13,21.80
2021,04,15,15,14,21.70
2021,04,15,15,15,21.60
2021,04,15,15,16,21.60
2021,04,15,15,17,21.60
2021,04,15,15,18,21.60
2021,04,15,15,19,21.60
2021,04,15,15,20,21.60
2021,04,15,15,21,21.60
2021,04,15,15,22,21.60
2021,04,15,15,23,21.60
2021,04,15,15,24,21.60
2021,04,15,15,25,21.50
2021,04,15,15,26,21.40
2021,04,15,15,27,21.40
2021,04,15,15,28,21.40
2021,04,15,15,29,21.50
2021,04,15,15,30,21.60
2021,04,15,15,31,21.60
2021,04,15,15,32,21.60
2021,04,15,15,33,21.60
2021,04,15,15,34,21.60
2021,04,15,15,35,21.70
2021,04,15,15,36,21.70
2021,04,15,15,37,21.80
2021,04,15,15,38,21.80
2021,04,15,15,39,21.80
2021,04,15,15,40,21.90
2021,04,15,15,41,21.90
2021,04,15,15,42,21.90
2021,04,15,15,43,21.90
2021,04,15,15,44,21.90
2021,04,15,15,45,21.90
2021,04,15,15,46,21.90
2021,04,15,15,47,21.90
2021,04,15,15,48,22.00
2021,04,15,15,49,22.00
2021,04,15,15,50,22.00
2021,04,15,15,51,22.00
2021,04,15,15,52,22.00
2021,04,15,15,53,22.00
2021,04,15,15,54,22.00
2021,04,15,15,55,21.90
2021,04,15,15,56,21.80
2021,04,15,15,57,21.80
2021,04,15,15,58,21.70
2021,04,15,15,59,21.60
2021,04,15,16,00,21.60
2021,04,15,16,01,21.60
2021,04,15,16,02,21.50
2021,04,15,16,03,21.40
2021,04,15,16,04,21.30
2021,04,15,16,05,21.30
2021,04,15,16,06,21.20
2021,04,15,16,07,21.10
2021,04,15,16,08,21.10
2021,04,15,16,09,21.00
2021,04,15,16,10,21.00
2021,04,15,16,11,20.90
2021,04,15,16,12,20.90
2021,04,15,16,13,20.80
2021,04,15,16,14,20.80
2021,04,15,16,15,20.70
2021,04,15,16,16,20.70
2021,04,15,16,17,20.70
2021,04,15,16,18,20.60
2021,04,15,16,19,20.60
2021,04,15,16,20,20.60
2021,04,15,16,21,20.50
2021,04,15,16,22,20.50
2021,04,15,16,23,20.50
2021,04,15,16,24,20.40
2021,04,15,16,25,20.40
2021,04,15,16,26,20.40
2021,04,15,16,27,20.30
2021,04,15,16,28,20.30
2021,04,15,16,29,20.30
2021,04,15,16,30,20.30
2021,04,15,16,31,20.20
2021,04,15,16,32,20.20
2021,04,15,16,33,20.20
2021,04,15,16,34,20.20
2021,04,15,16,35,20.20
2021,04,15,16,36,20.20
2021,04,15,16,37,20.20
2021,04,15,16,38,20.20
2021,04,15,16,39,20.20
2021,04,15,16,40,20.20
2021,04,15,16,41,20.20
2021,04,15,16,42,20.20
2021,04,15,16,43,20.20
2021,04,15,16,44,20.20
2021,04,15,16,45,20.20
2021,04,15,16,46,20.20
2021,04,15,16,47,20.10
2021,04,15,16,48,20.10
2021,04,15,16,49,20.10
2021,04,15,16,50,20.10
2021,04,15,16,51,20.00
2021,04,15,16,52,19.90
2021,04,15,16,53,19.90
2021,04,15,16,54,19.90
2021,04,15,16,55,19.90
2021,04,15,16,56,19.90
2021,04,15,16,57,19.90
2021,04,15,16,58,19.90
2021,04,15,16,59,19.90
2021,04,15,17,00,19.90
2021,04,15,17,01,19.90
2021,04,15,17,02,19.90
2021,04,15,17,03,19.90
2021,04,15,17,04,19.90
2021,04,15,17,05,19.90
2021,04,15,17,06,19.80
2021,04,15,17,07,19.80
2021,04,15,17,08,19.70
2021,04,15,17,09,19.70
2021,04,15,17,10,19.60
2021,04,15,17,11,19.60
2021,04,15,17,12,19.50
2021,04,15,17,13,19.50
2021,04,15,17,14,19.50
2021,04,15,17,15,19.50
2021,04,15,17,16,19.50
2021,04,15,17,17,19.40
2021,04,15,17,18,19.40
2021,04,15,17,19,19.40
2021,04,15,17,20,19.40
2021,04,15,17,21,19.40
2021,04,15,17,22,19.40
2021,04,15,17,23,19.40
2021,04,15,17,24,19.40
2021,04,15,17,25,19.40
2021,04,15,17,26,19.40
2021,04,15,17,27,19.40
2021,04,15,17,28,19.40
2021,04,15,17,29,19.40
2021,04,15,17,30,19.40
2021,04,15,17,31,19.40
2021,04,15,17,32,19.40
2021,04,15,17,33,19.30
2021,04,15,17,34,19.30
2021,04,15,17,35,19.30
2021,04,15,17,36,19.30
2021,04,15,17,37,19.30
2021,04,15,17,38,19.20
2021,04,15,17,39,19.20